Time,TemperatureF,DewpointF,PressureIn,WindDirection,WindDirectionDegrees,WindSpeedMPH,WindSpeedGustMPH,Humidity,HourlyPrecipIn,Conditions,Clouds,dailyrainin,SolarRadiationWatts/m^2,SoftwareType,DateUTC
2013-03-31 00:02:00,34.0,34.0,-100.00,WNW,296,5.0,8.0,98,0.00,,,0.00,0.000000,,2013-03-31 05:02:00,
2013-03-31 00:12:00,34.0,34.0,-100.00,WNW,288,3.0,8.0,98,0.00,,,0.00,0.000000,,2013-03-31 05:12:00,
2013-03-31 00:42:00,34.0,34.0,-100.00,WNW,288,3.0,8.0,98,0.00,,,0.00,0.000000,,2013-03-31 05:42:00,
2013-03-31 00:53:00,34.0,34.0,-100.00,WNW,288,3.0,8.0,98,0.00,,,0.00,0.000000,,2013-03-31 05:53:00,
2013-03-31 01:02:00,34.0,34.0,-100.00,WNW,288,3.0,8.0,98,0.00,,,0.00,0.000000,,2013-03-31 06:02:00,
2013-03-31 01:12:00,34.0,34.0,-100.00,West,280,2.0,7.0,98,0.00,,,0.00,0.000000,,2013-03-31 06:12:00,
2013-03-31 01:42:00,34.0,34.0,-100.00,West,280,2.0,7.0,98,0.00,,,0.00,0.000000,,2013-03-31 06:42:00,
2013-03-31 01:52:00,34.0,34.0,-100.00,West,280,2.0,7.0,98,0.00,,,0.00,0.000000,,2013-03-31 06:52:00,
2013-03-31 02:02:00,34.0,34.0,-100.00,West,280,2.0,7.0,98,0.00,,,0.00,0.000000,,2013-03-31 07:02:00,
2013-03-31 03:12:00,34.0,34.0,-100.00,West,273,4.0,9.0,98,-99.99,,,0.00,0.000000,,2013-03-31 08:12:00,
2013-03-31 03:32:00,34.0,34.0,-100.00,West,273,4.0,9.0,98,-99.99,,,0.00,0.000000,,2013-03-31 08:32:00,
2013-03-31 03:42:00,34.0,34.0,-100.00,West,273,4.0,9.0,98,-99.99,,,0.00,0.000000,,2013-03-31 08:42:00,
2013-03-31 03:52:00,34.0,34.0,-100.00,West,273,4.0,9.0,98,-99.99,,,0.00,0.000000,,2013-03-31 08:52:00,
2013-03-31 04:02:00,34.0,34.0,-100.00,West,273,4.0,9.0,98,-99.99,,,0.00,0.000000,,2013-03-31 09:02:00,
2013-03-31 04:12:00,35.0,34.0,-100.00,WNW,299,4.0,10.0,98,0.00,,,-99.99,0.000000,,2013-03-31 09:12:00,
2013-03-31 04:33:00,35.0,34.0,-100.00,WNW,299,4.0,10.0,98,0.00,,,-99.99,0.000000,,2013-03-31 09:33:00,
2013-03-31 04:43:00,35.0,34.0,-100.00,WNW,299,4.0,10.0,98,0.00,,,-99.99,0.000000,,2013-03-31 09:43:00,
2013-03-31 04:53:00,35.0,34.0,-100.00,WNW,299,4.0,10.0,98,0.00,,,-99.99,0.000000,,2013-03-31 09:53:00,
2013-03-31 05:03:00,35.0,34.0,-100.00,WNW,299,4.0,10.0,98,0.00,,,-99.99,0.000000,,2013-03-31 10:03:00,
2013-03-31 05:12:00,34.0,34.0,-100.00,West,274,3.0,8.0,98,0.00,,,0.00,0.000000,,2013-03-31 10:12:00,
2013-03-31 05:33:00,34.0,34.0,-100.00,West,274,3.0,8.0,98,0.00,,,0.00,0.000000,,2013-03-31 10:33:00,
2013-03-31 05:42:00,34.0,34.0,-100.00,West,274,3.0,8.0,98,0.00,,,0.00,0.000000,,2013-03-31 10:42:00,
2013-03-31 05:53:00,34.0,34.0,-100.00,West,274,3.0,8.0,98,0.00,,,0.00,0.000000,,2013-03-31 10:53:00,
2013-03-31 06:02:00,34.0,34.0,-100.00,West,274,3.0,8.0,98,0.00,,,0.00,0.000000,,2013-03-31 11:02:00,
2013-03-31 06:12:00,32.0,32.0,-100.00,WSW,244,3.0,5.0,98,0.00,,,0.00,0.000000,,2013-03-31 11:12:00,
2013-03-31 06:33:00,32.0,32.0,-100.00,WSW,244,3.0,5.0,98,0.00,,,0.00,0.000000,,2013-03-31 11:33:00,
2013-03-31 06:42:00,32.0,32.0,-100.00,WSW,244,3.0,5.0,98,0.00,,,0.00,0.000000,,2013-03-31 11:42:00,
2013-03-31 06:53:00,32.0,32.0,-100.00,WSW,244,3.0,5.0,98,0.00,,,0.00,0.000000,,2013-03-31 11:53:00,
2013-03-31 07:03:00,32.0,32.0,-100.00,WSW,244,3.0,5.0,98,0.00,,,0.00,0.000000,,2013-03-31 12:03:00,
2013-03-31 09:12:00,40.0,34.0,-100.00,WNW,298,7.0,13.0,78,-99.99,,,0.00,381.000000,,2013-03-31 14:12:00,
2013-03-31 09:33:00,40.0,34.0,-100.00,WNW,298,7.0,13.0,78,-99.99,,,0.00,381.000000,,2013-03-31 14:33:00,
2013-03-31 09:43:00,40.0,34.0,-100.00,WNW,298,7.0,13.0,78,-99.99,,,0.00,381.000000,,2013-03-31 14:43:00,
2013-03-31 09:52:00,40.0,34.0,-100.00,WNW,298,7.0,13.0,78,-99.99,,,0.00,381.000000,,2013-03-31 14:52:00,
2013-03-31 10:03:00,40.0,34.0,-100.00,WNW,298,7.0,13.0,78,-99.99,,,0.00,381.000000,,2013-03-31 15:03:00,
2013-03-31 10:12:00,44.0,32.0,-100.00,NW,311,8.0,18.0,62,0.00,,,0.00,531.000000,,2013-03-31 15:12:00,
2013-03-31 10:43:00,44.0,32.0,-100.00,NW,311,8.0,18.0,62,0.00,,,0.00,531.000000,,2013-03-31 15:43:00,
2013-03-31 10:54:00,44.0,32.0,-100.00,NW,311,8.0,18.0,62,0.00,,,0.00,531.000000,,2013-03-31 15:54:00,
2013-03-31 11:03:00,44.0,32.0,-100.00,NW,311,8.0,18.0,62,0.00,,,0.00,531.000000,,2013-03-31 16:03:00,
2013-03-31 11:12:00,46.0,29.0,-100.00,NW,309,9.0,19.0,51,0.00,,,0.00,630.000000,,2013-03-31 16:12:00,
2013-03-31 11:34:00,46.0,29.0,-100.00,NW,309,9.0,19.0,51,0.00,,,0.00,630.000000,,2013-03-31 16:34:00,
2013-03-31 11:43:00,46.0,29.0,-100.00,NW,309,9.0,19.0,51,0.00,,,0.00,630.000000,,2013-03-31 16:43:00,
2013-03-31 11:53:00,46.0,29.0,-100.00,NW,309,9.0,19.0,51,0.00,,,0.00,630.000000,,2013-03-31 16:53:00,
2013-03-31 12:03:00,46.0,29.0,-100.00,NW,309,9.0,19.0,51,0.00,,,0.00,630.000000,,2013-03-31 17:03:00,
2013-03-31 12:12:00,44.0,28.0,-100.00,NW,311,10.0,20.0,53,0.00,,,0.00,500.000000,,2013-03-31 17:12:00,
2013-03-31 12:33:00,44.0,28.0,-100.00,NW,311,10.0,20.0,53,0.00,,,0.00,500.000000,,2013-03-31 17:33:00,
2013-03-31 12:43:00,44.0,28.0,-100.00,NW,311,10.0,20.0,53,0.00,,,0.00,500.000000,,2013-03-31 17:43:00,
2013-03-31 12:52:00,44.0,28.0,-100.00,NW,311,10.0,20.0,53,0.00,,,0.00,500.000000,,2013-03-31 17:52:00,
2013-03-31 13:02:00,44.0,28.0,-100.00,NW,311,10.0,20.0,53,0.00,,,0.00,500.000000,,2013-03-31 18:02:00,
2013-03-31 13:12:00,39.0,29.0,-100.00,NW,309,10.0,24.0,66,0.00,,,-99.99,291.000000,,2013-03-31 18:12:00,
2013-03-31 13:43:00,39.0,29.0,-100.00,NW,309,10.0,24.0,66,0.00,,,-99.99,291.000000,,2013-03-31 18:43:00,
2013-03-31 13:53:00,39.0,29.0,-100.00,NW,309,10.0,24.0,66,0.00,,,-99.99,291.000000,,2013-03-31 18:53:00,
2013-03-31 14:03:00,39.0,29.0,-100.00,NW,309,10.0,24.0,66,0.00,,,-99.99,291.000000,,2013-03-31 19:03:00,
2013-03-31 14:12:00,42.0,21.0,-100.00,WNW,301,14.0,27.0,43,0.00,,,-99.99,579.000000,,2013-03-31 19:12:00,
2013-03-31 14:43:00,42.0,21.0,-100.00,WNW,301,14.0,27.0,43,0.00,,,-99.99,579.000000,,2013-03-31 19:43:00,
2013-03-31 14:54:00,42.0,21.0,-100.00,WNW,301,14.0,27.0,43,0.00,,,-99.99,579.000000,,2013-03-31 19:54:00,
2013-03-31 15:03:00,42.0,21.0,-100.00,WNW,301,14.0,27.0,43,0.00,,,-99.99,579.000000,,2013-03-31 20:03:00,
2013-03-31 15:12:00,40.0,17.0,-100.00,NW,310,15.0,32.0,39,0.00,,,0.00,537.000000,,2013-03-31 20:12:00,
2013-03-31 15:43:00,40.0,17.0,-100.00,NW,310,15.0,32.0,39,0.00,,,0.00,537.000000,,2013-03-31 20:43:00,
2013-03-31 15:53:00,40.0,17.0,-100.00,NW,310,15.0,32.0,39,0.00,,,0.00,537.000000,,2013-03-31 20:53:00,
2013-03-31 16:02:00,40.0,17.0,-100.00,NW,310,15.0,32.0,39,0.00,,,0.00,537.000000,,2013-03-31 21:02:00,
2013-03-31 16:12:00,43.0,17.0,-100.00,NW,320,13.0,27.0,34,0.00,,,0.00,644.000000,,2013-03-31 21:12:00,
2013-03-31 16:34:00,43.0,17.0,-100.00,NW,320,13.0,27.0,34,0.00,,,0.00,644.000000,,2013-03-31 21:34:00,
2013-03-31 16:43:00,43.0,17.0,-100.00,NW,320,13.0,27.0,34,0.00,,,0.00,644.000000,,2013-03-31 21:43:00,
2013-03-31 16:54:00,43.0,17.0,-100.00,NW,320,13.0,27.0,34,0.00,,,0.00,644.000000,,2013-03-31 21:54:00,
2013-03-31 17:03:00,43.0,17.0,-100.00,NW,320,13.0,27.0,34,0.00,,,0.00,644.000000,,2013-03-31 22:03:00,
2013-03-31 17:12:00,37.0,18.0,-100.00,NW,310,12.0,32.0,46,0.00,,,0.00,464.000000,,2013-03-31 22:12:00,
2013-03-31 17:43:00,37.0,18.0,-100.00,NW,310,12.0,32.0,46,0.00,,,0.00,464.000000,,2013-03-31 22:43:00,
2013-03-31 17:53:00,37.0,18.0,-100.00,NW,310,12.0,32.0,46,0.00,,,0.00,464.000000,,2013-03-31 22:53:00,
2013-03-31 18:03:00,37.0,18.0,-100.00,NW,310,12.0,32.0,46,0.00,,,0.00,464.000000,,2013-03-31 23:03:00,
2013-03-31 18:12:00,30.0,19.0,-100.00,NNW,329,13.0,30.0,62,0.00,,,0.00,124.000000,,2013-03-31 23:12:00,
2013-03-31 18:43:00,30.0,19.0,-100.00,NNW,329,13.0,30.0,62,0.00,,,0.00,124.000000,,2013-03-31 23:43:00,
2013-03-31 18:53:00,30.0,19.0,-100.00,NNW,329,13.0,30.0,62,0.00,,,0.00,124.000000,,2013-03-31 23:53:00,
2013-03-31 19:02:00,30.0,19.0,-100.00,NNW,329,13.0,30.0,62,0.00,,,0.00,124.000000,,2013-04-01 00:02:00,
2013-03-31 19:12:00,28.0,13.0,-100.00,NNW,330,9.0,28.0,53,0.00,,,0.00,51.000000,,2013-04-01 00:12:00,
2013-03-31 19:33:00,28.0,13.0,-100.00,NNW,330,9.0,28.0,53,0.00,,,0.00,51.000000,,2013-04-01 00:33:00,
2013-03-31 19:43:00,28.0,13.0,-100.00,NNW,330,9.0,28.0,53,0.00,,,0.00,51.000000,,2013-04-01 00:43:00,
2013-03-31 19:53:00,28.0,13.0,-100.00,NNW,330,9.0,28.0,53,0.00,,,0.00,51.000000,,2013-04-01 00:53:00,
2013-03-31 20:03:00,28.0,13.0,-100.00,NNW,330,9.0,28.0,53,0.00,,,0.00,51.000000,,2013-04-01 01:03:00,
2013-03-31 20:12:00,27.0,15.0,-100.00,NNW,337,12.0,23.0,60,0.00,,,0.00,1.000000,,2013-04-01 01:12:00,
2013-03-31 20:33:00,27.0,15.0,-100.00,NNW,337,12.0,23.0,60,0.00,,,0.00,1.000000,,2013-04-01 01:33:00,
2013-03-31 20:43:00,27.0,15.0,-100.00,NNW,337,12.0,23.0,60,0.00,,,0.00,1.000000,,2013-04-01 01:43:00,
2013-03-31 20:53:00,27.0,15.0,-100.00,NNW,337,12.0,23.0,60,0.00,,,0.00,1.000000,,2013-04-01 01:53:00,
2013-03-31 21:03:00,27.0,15.0,-100.00,NNW,337,12.0,23.0,60,0.00,,,0.00,1.000000,,2013-04-01 02:03:00,
2013-03-31 21:12:00,26.0,16.0,-100.00,NNW,348,9.0,19.0,65,0.00,,,0.00,0.000000,,2013-04-01 02:12:00,
2013-03-31 21:43:00,26.0,16.0,-100.00,NNW,348,9.0,19.0,65,0.00,,,0.00,0.000000,,2013-04-01 02:43:00,
2013-03-31 21:53:00,26.0,16.0,-100.00,NNW,348,9.0,19.0,65,0.00,,,0.00,0.000000,,2013-04-01 02:53:00,
2013-03-31 22:03:00,26.0,16.0,-100.00,NNW,348,9.0,19.0,65,0.00,,,0.00,0.000000,,2013-04-01 03:03:00,
2013-03-31 22:12:00,23.0,19.0,-100.00,NW,320,5.0,18.0,86,0.00,,,0.00,0.000000,,2013-04-01 03:12:00,
2013-03-31 22:35:00,23.0,19.0,-100.00,NW,320,5.0,18.0,86,0.00,,,0.00,0.000000,,2013-04-01 03:35:00,
2013-03-31 22:43:00,23.0,19.0,-100.00,NW,320,5.0,18.0,86,0.00,,,0.00,0.000000,,2013-04-01 03:43:00,
2013-03-31 22:53:00,23.0,19.0,-100.00,NW,320,5.0,18.0,86,0.00,,,0.00,0.000000,,2013-04-01 03:53:00,
2013-03-31 23:03:00,23.0,19.0,-100.00,NW,320,5.0,18.0,86,0.00,,,0.00,0.000000,,2013-04-01 04:03:00,
2013-03-31 23:12:00,24.0,21.0,-100.00,North,358,6.0,18.0,87,0.00,,,0.00,0.000000,,2013-04-01 04:12:00,
2013-03-31 23:33:00,24.0,21.0,-100.00,North,358,6.0,18.0,87,0.00,,,0.00,0.000000,,2013-04-01 04:33:00,
2013-03-31 23:43:00,24.0,21.0,-100.00,North,358,6.0,18.0,87,0.00,,,0.00,0.000000,,2013-04-01 04:43:00,
2013-03-31 23:53:00,24.0,21.0,-100.00,North,358,6.0,18.0,87,0.00,,,0.00,0.000000,,2013-04-01 04:53:00,